Regional Weather Roundup
Issued by NWS Albany, NY

Home | Current Version | Previous Version | Text Only | Print | Product List | Glossary On
Versions: 1 2 3 4 5 6 7 8 9 10 11 12 13 14 15 16 17 18 19 20 21 22 23 24 25 26 27 28 29 30 31 32 33 34 35 36 37 38 39 40 41 42 43 44 45 46 47 48 49 50
000
ASUS41 KALY 021810
RWRALY

NEW YORK STATE HOURLY WEATHER ROUNDUP
NATIONAL WEATHER SERVICE ALBANY NY
200 PM EDT WED SEP 02 2015

NOTE: "FAIR" INDICATES FEW OR NO CLOUDS BELOW 12,000 FEET WITH NO
SIGNIFICANT WEATHER AND/OR NO OBSTRUCTIONS TO VISIBILITY.

NYZ032-033-038>043-046>054-057>066-NYZ062>081-021900-
EAST


CITY           SKY/WX    TMP DP  RH WIND       PRES   REMARKS
ALBANY         MOSUNNY   86  65  49 VRB3      29.96F
GLENS FALLS    SUNNY     83  65  54 VRB7      29.95F
POUGHKEEPSIE   SUNNY     89  61  38 VRB7      29.95F
NEWBURGH       MOSUNNY   84  68  58 VRB6      30.00S
MONTGOMERY     PTSUNNY   91  65  41 VRB6      29.96F HX  93
WHITE PLAINS   MOSUNNY   88  62  41 W5        29.96F
ISLIP          PTSUNNY   85  59  41 SW13      29.96F
NEW YORK CITY  MOSUNNY   86  67  52 S9        29.95F
CENTRAL PARK   MOSUNNY   90  64  42 W5        29.98F HX  91
$$

NYZ005>009-017-018-044>046-055-056-021900-
CENTRAL


CITY           SKY/WX    TMP DP  RH WIND       PRES   REMARKS
FULTON         MOSUNNY   81  69  67 W7        30.00F
SYRACUSE       MOSUNNY   83  70  64 NW9       29.99F
ROME           SUNNY     80  69  69 NW6       30.00F
ELMIRA         MOSUNNY   87  66  49 N9        30.00F
BINGHAMTON     MOSUNNY   82  66  58 NW6       30.05F
MONTICELLO     MOSUNNY   82  64  54 NW6       30.03F
$$

NYZ026>034-041>043-021900-
NORTH


CITY           SKY/WX    TMP DP  RH WIND       PRES   REMARKS
WATERTOWN      PTSUNNY   79  69  71 W7        29.99F HAZE
FORT DRUM      NOT AVBL
MASSENA        PTSUNNY   78  68  71 SW10      29.97F
SARANAC LAKE   MOSUNNY   80  62  54 VRB6      30.01F
PLATTSBURGH    SUNNY     79  66  64 SE9       29.94F
$$

NYZ001>004-010>016-019>021-021900-
WEST


CITY           SKY/WX    TMP DP  RH WIND       PRES   REMARKS
NIAGARA FALLS  MOSUNNY   86  71  60 S12       29.98F HX  91
BUFFALO        MOSUNNY   82  70  66 SW13      30.01F
DUNKIRK        SUNNY     84  69  60 W12       30.02F
JAMESTOWN      MOSUNNY   82  64  54 W8        30.07F
WELLSVILLE     MOSUNNY   84  63  49 NW13      30.10F
ROCHESTER      MOSUNNY   86  69  56 SW7       29.99F HX  90
PENN YAN       MOSUNNY   84  68  58 W7        30.03F
$$

             KEY
       WCI = WIND CHILL INDEX
       VSB = VISIBILITY
       HX  = HEAT INDEX
$$


USA.gov is the U.S. government's official web portal to all federal, state and local government web resources and services.